Weather History for Andrews, NC

Change the Weather History Date:

Tuesday, May 7, 2013

  Actual Average (KTYS) Record (KTYS)
Temperature  
Mean Temperature 53 °F 65 °F  
Max Temperature 67 °F 76 °F 92 °F (1940)
Min Temperature 39 °F 54 °F 37 °F (1989)
Degree Days  
Heating Degree Days 12 3  
Month to date heating degree days 23  
Since 1 July heating degree days 3598  
Cooling Degree Days 0 2  
Month to date cooling degree days 14  
Year to date cooling degree days 51  
Growing Degree Days 3 (Base 50)    
Moisture  
Dew Point 44 °F    
Average Humidity 74    
Maximum Humidity 100    
Minimum Humidity 39    
Precipitation  
Precipitation 0.00 in 0.15 in 2.72 in (1984)
Month to date precipitation 1.05  
Year to date precipitation 17.98  
Snow  
Snow 0.00 in 0.00 in - ()
Month to date snowfall 0.0  
Since 1 July snowfall 6.5  
Snow Depth -    
Sea Level Pressure  
Sea Level Pressure 29.93 in    
Wind  
Wind Speed 2 mph (North)    
Max Wind Speed 14 mph    
Max Gust Speed 23 mph    
Visibility 9 miles    
Events Fog    
T = Trace of Precipitation, MM = Missing Value Source: NWS Daily Summary

Daily Weather History Graph

Daily Weather History Graph

Search for Another Location

Airport:

Trip Planner

Search our weather history database for the weather conditions in past years. The results will help you decide how hot, cold, wet, or windy it might be!

Date:

Astronomy

May. 07, 2013 Rise Set
Actual Time 6:38 AM EDT 8:26 PM EDT
Civil Twilight 6:10 AM EDT 8:54 PM EDT
Nautical Twilight 5:37 AM EDT 9:27 PM EDT
Astronomical Twilight 5:01 AM EDT 10:03 PM EDT
Moon 5:06 AM EDT (5/7) 6:28 PM EDT (5/7)
Length of Visible Light 14h 43m
Length of Day
13h 48m
Waning Crescent, 5% of the Moon is Illuminated
May 7
Waning Crescent
May 9
New
May 18
First Quarter
May 25
Full
May 31
Last Quarter

Hourly Weather History & Observations

Time (EDT) Temp. Windchill Dew Point Humidity Pressure Visibility Wind Dir Wind Speed Gust Speed Precip Events Conditions
12:15 AM 46.9 °F - 44.8 °F 92% 29.91 in 10.0 mi Calm Calm - N/A   Overcast
12:35 AM 46.0 °F - 44.6 °F 95% 29.91 in 10.0 mi Calm Calm - N/A   Overcast
12:55 AM 45.5 °F - 44.1 °F 95% 29.91 in 10.0 mi Calm Calm - N/A   Mostly Cloudy
1:15 AM 44.4 °F - 43.3 °F 96% 29.91 in 10.0 mi Calm Calm - N/A   Scattered Clouds
1:35 AM 43.0 °F - 42.4 °F 98% 29.90 in 10.0 mi Calm Calm - N/A   Mostly Cloudy
1:55 AM 43.3 °F - 42.6 °F 97% 29.90 in 10.0 mi Calm Calm - N/A   Overcast
2:15 AM 43.2 °F - 42.6 °F 98% 29.90 in 10.0 mi Calm Calm - N/A   Overcast
2:35 AM 44.1 °F - 43.3 °F 97% 29.89 in 10.0 mi Calm Calm - N/A   Overcast
2:55 AM 43.7 °F - 43.2 °F 98% 29.89 in 10.0 mi Calm Calm - N/A   Overcast
3:15 AM 43.7 °F - 43.3 °F 99% 29.89 in 7.0 mi Calm Calm - N/A   Overcast
3:35 AM 43.5 °F - 42.8 °F 97% 29.89 in 10.0 mi Calm Calm - N/A   Overcast
3:55 AM 43.0 °F - 42.6 °F 99% 29.89 in 10.0 mi Calm Calm - N/A   Mostly Cloudy
4:15 AM 41.4 °F - 40.6 °F 97% 29.89 in 10.0 mi Calm Calm - N/A   Scattered Clouds
4:35 AM 41.4 °F 39.4 °F 41.0 °F 99% 29.90 in 10.0 mi East 3.5 mph - N/A   Mostly Cloudy
4:55 AM 41.2 °F 39.2 °F 40.8 °F 99% 29.90 in 7.0 mi NE 3.5 mph - N/A   Overcast
5:15 AM 41.5 °F - 41.2 °F 99% 29.90 in 1.8 mi Calm Calm - N/A   Overcast
5:35 AM 42.1 °F - 41.9 °F 99% 29.90 in 0.8 mi Calm Calm - N/A   Overcast
6:15 AM 41.0 °F - 41.0 °F 100% 29.91 in 0.2 mi Calm Calm - N/A Fog Fog
6:35 AM 41.0 °F - 41.0 °F 100% 29.92 in 0.5 mi Calm Calm - N/A Fog Fog
6:55 AM 40.1 °F - 39.7 °F 99% 29.93 in 1.2 mi Calm Calm - N/A   Mostly Cloudy
7:15 AM 39.6 °F - 39.2 °F 99% 29.93 in 3.0 mi Calm Calm - N/A   Scattered Clouds
7:35 AM 40.1 °F 38.0 °F 40.1 °F 100% 29.94 in 0.8 mi NNW 3.5 mph - N/A   Overcast
7:55 AM 41.2 °F - 41.0 °F 99% 29.95 in 10.0 mi Calm Calm - N/A   Mostly Cloudy
8:15 AM 42.3 °F - 41.5 °F 97% 29.95 in 10.0 mi Calm Calm - N/A   Mostly Cloudy
8:35 AM 43.9 °F - 43.0 °F 97% 29.96 in 10.0 mi Calm Calm - N/A   Scattered Clouds
8:55 AM 46.4 °F - 43.9 °F 91% 29.95 in 10.0 mi Calm Calm - N/A   Clear
9:15 AM 48.9 °F - 45.7 °F 89% 29.95 in 10.0 mi Calm Calm - N/A   Clear
9:35 AM 51.1 °F - 46.6 °F 85% 29.95 in 10.0 mi Calm Calm - N/A   Clear
9:55 AM 54.9 °F - 45.5 °F 71% 29.95 in 10.0 mi Calm Calm - N/A   Clear
10:15 AM 57.0 °F - 46.0 °F 67% 29.95 in 10.0 mi Calm Calm - N/A   Scattered Clouds
10:35 AM 59.0 °F - 45.3 °F 60% 29.95 in 10.0 mi Calm Calm - N/A   Mostly Cloudy
10:55 AM 59.4 °F - 45.3 °F 60% 29.95 in 10.0 mi NNW 3.5 mph - N/A   Scattered Clouds
11:15 AM 60.1 °F - 44.6 °F 57% 29.95 in 10.0 mi Calm Calm - N/A   Scattered Clouds
11:35 AM 62.2 °F - 45.3 °F 54% 29.95 in 10.0 mi ENE 5.8 mph - N/A   Mostly Cloudy
11:55 AM 62.1 °F - 45.5 °F 55% 29.95 in 10.0 mi North 3.5 mph - N/A   Scattered Clouds
12:15 PM 61.3 °F - 45.3 °F 56% 29.94 in 10.0 mi Calm Calm - N/A   Scattered Clouds
12:35 PM 63.9 °F - 45.9 °F 52% 29.94 in 10.0 mi North 4.6 mph - N/A   Mostly Cloudy
12:55 PM 64.0 °F - 44.2 °F 49% 29.93 in 10.0 mi NW 6.9 mph - N/A   Mostly Cloudy
1:15 PM 64.4 °F - 45.1 °F 50% 29.93 in 10.0 mi NE 6.9 mph - N/A   Scattered Clouds
1:35 PM 65.1 °F - 46.0 °F 50% 29.93 in 10.0 mi NE 13.8 mph - N/A   Scattered Clouds
1:55 PM 64.9 °F - 44.2 °F 47% 29.93 in 10.0 mi Calm Calm - N/A   Clear
2:15 PM 65.8 °F - 43.3 °F 44% 29.93 in 10.0 mi North 11.5 mph 16.1 mph N/A   Clear
2:35 PM 66.6 °F - 45.0 °F 46% 29.92 in 10.0 mi North 11.5 mph 23.0 mph N/A   Clear
2:55 PM 66.6 °F - 41.0 °F 39% 29.91 in 10.0 mi NE 6.9 mph - N/A   Clear
3:15 PM 67.5 °F - 42.6 °F 41% 29.91 in 10.0 mi North 9.2 mph 16.1 mph N/A   Scattered Clouds
3:35 PM 67.6 °F - 43.7 °F 42% 29.90 in 10.0 mi North 3.5 mph 16.1 mph N/A   Scattered Clouds
3:55 PM 66.2 °F - 44.4 °F 45% 29.89 in 10.0 mi West 8.1 mph - N/A   Scattered Clouds
4:15 PM 64.0 °F - 41.9 °F 44% 29.90 in 10.0 mi Calm Calm - N/A   Mostly Cloudy
4:35 PM 64.0 °F - 44.6 °F 49% 29.90 in 10.0 mi NNE 11.5 mph - N/A   Overcast
4:55 PM 64.6 °F - 45.0 °F 49% 29.90 in 10.0 mi NNE 4.6 mph - N/A   Mostly Cloudy
5:15 PM 67.1 °F - 42.4 °F 41% 29.90 in 10.0 mi NNW 10.4 mph - N/A   Scattered Clouds
5:35 PM 66.6 °F - 42.4 °F 42% 29.91 in 10.0 mi NW 5.8 mph - N/A   Mostly Cloudy
5:55 PM 66.7 °F - 42.3 °F 41% 29.91 in 10.0 mi WNW 6.9 mph 16.1 mph N/A   Mostly Cloudy
6:15 PM 66.7 °F - 42.8 °F 42% 29.92 in 10.0 mi North 9.2 mph - N/A   Overcast
6:35 PM 65.7 °F - 43.2 °F 44% 29.92 in 10.0 mi North 5.8 mph - N/A   Scattered Clouds
6:55 PM 65.3 °F - 45.7 °F 49% 29.92 in 10.0 mi NNE 8.1 mph - N/A   Mostly Cloudy
7:15 PM 62.6 °F - 45.0 °F 52% 29.93 in 10.0 mi NE 4.6 mph - N/A   Scattered Clouds
7:35 PM 61.3 °F - 46.0 °F 57% 29.93 in 10.0 mi NE 5.8 mph - N/A   Clear
7:55 PM 60.1 °F - 46.2 °F 60% 29.95 in 10.0 mi NNE 3.5 mph - N/A   Mostly Cloudy
8:15 PM 57.2 °F - 49.5 °F 75% 29.95 in 10.0 mi Calm Calm - N/A   Mostly Cloudy
8:35 PM 56.3 °F - 50.4 °F 80% 29.95 in 10.0 mi Calm Calm - N/A   Overcast
8:55 PM 55.9 °F - 49.1 °F 78% 29.96 in 10.0 mi Calm Calm - N/A   Overcast
9:15 PM 55.8 °F - 48.4 °F 76% 29.97 in 10.0 mi Calm Calm - N/A   Overcast
9:35 PM 54.1 °F - 48.2 °F 80% 29.97 in 10.0 mi Calm Calm - N/A   Mostly Cloudy
9:55 PM 52.0 °F - 47.8 °F 86% 29.98 in 10.0 mi Calm Calm - N/A   Mostly Cloudy
10:15 PM 51.3 °F - 49.1 °F 92% 29.99 in 10.0 mi Calm Calm - N/A   Overcast
10:35 PM 52.3 °F - 49.1 °F 89% 29.99 in 10.0 mi Calm Calm - N/A   Overcast
10:55 PM 52.2 °F - 48.4 °F 87% 29.99 in 10.0 mi Calm Calm - N/A   Mostly Cloudy
11:15 PM 51.3 °F - 48.6 °F 90% 29.99 in 10.0 mi Calm Calm - N/A   Mostly Cloudy
11:35 PM 50.4 °F - 48.4 °F 93% 29.99 in 10.0 mi Calm Calm - N/A   Scattered Clouds
11:55 PM 49.1 °F - 46.8 °F 92% 29.99 in 10.0 mi Calm Calm - N/A   Scattered Clouds